Location: Unspecified
(0.0000°N, 0.0000°E)
Time: 18:17:36
(UTC+00:00)

Envisat - Pass Details

Date: 24 July 2017
Orbit: 764 x 766 km, 98.2° (Epoch: 23 September)

Event Time Altitude Azimuth Distance (km) Brightness Sun altitude
Exits shadow 19:49:10 19° 37° (NE) 1,737 4.7 -24.1°
Drops below altitude 10° 19:51:03 10° 20° (NNE) 2,293 5.5 -24.5°
Sets 19:53:37 0° 9° (N) 3,216 6.4 -25.1°
